Location: Guilderland
(42.7045°N, 73.9115°W)
Time: 03:54:20
(UTC+00:00)

Cosmos 1455 - Pass Details

Date: 24 January 2020
Orbit: 498 x 524 km, 82.5° (Epoch: 18 February)

Event Time Altitude Azimuth Distance (km) Brightness Sun altitude
Rises 23:31:56 0° 346° (NNW) 2,635 5.8 -17.2°
Reaches altitude 10° 23:34:07 10° 342° (NNW) 1,739 5.0 -17.6°
Maximum altitude 23:37:49 51° 266° (W) 649 3.0 -18.3°
Drops below altitude 10° 23:41:27 10° 190° (S) 1,710 5.1 -18.9°
Sets 23:43:35 0° 185° (S) 2,586 5.9 -19.3°
